Regional Weather Roundup
Issued by NWS

Home | Current Version | Previous Version | Graphics & Text | Print | Product List | Glossary On
Versions: 1 2 3 4 5 6 7 8 9 10 11 12 13 14 15 16 17 18 19 20 21 22 23 24 25 26 27 28 29 30 31 32 33 34 35 36 37 38 39 40 41 42 43 44 45 46 47 48 49 50
000
ASUS43 KFSD 221702
RWRSD

WEATHER ROUNDUP FOR SOUTH DAKOTA
NATIONAL WEATHER SERVICE SIOUX FALLS SD
1200 PM CDT WED OCT 22 2014

NOTE: "FAIR" INDICATES FEW OR NO CLOUDS BELOW 12,000 FEET WITH NO
SIGNIFICANT WEATHER AND/OR OBSTRUCTIONS TO VISIBILITY.


SDZ001>005-009-010-012>017-221800-
NORTHWEST AND NORTH CENTRAL SOUTH DAKOTA

CITY           SKY/WX    TMP DP  RH WIND       PRES   REMARKS
FAITH            N/A     54  39  57 W13       29.97R
MOBRIDGE       CLOUDY    54  50  86 NW9       29.89R
$$

SDZ012>016-024>037-041>051-057-063-072>074-221800-
SOUTHWEST AND SOUTH CENTRAL SOUTH DAKOTA

CITY           SKY/WX    TMP DP  RH WIND       PRES   REMARKS
RAPID CTY ARPT CLOUDY    60  32  34 NW9       30.02R
PIERRE         LGT RAIN  53  51  93 W12       29.95R
CUSTER         PTSUNNY   54  22  28 W13       30.05R
ELLSWORTH AFB  PTSUNNY   59  33  38 N10       30.02R
PHILIP         CLOUDY    58  40  51 N15       29.99R
PINE RIDGE     PTSUNNY   55  40  56 NE6       30.05R
SPEARFISH      FAIR      55  32  41 W17G24    30.03F
WINNER         LGT RAIN  54  50  86 NW13      29.97S
$$

SDZ004>011-016>023-039-040-221800-
NORTHEAST SOUTH DAKOTA

CITY           SKY/WX    TMP DP  RH WIND       PRES   REMARKS
ABERDEEN       PTSUNNY   63  49  60 SW16      29.89R
WATERTOWN      CLOUDY    61  47  59 S18G31    29.91S
$$

SDZ017-020-022-023-036>040-048>070-221800-
SOUTHEAST SOUTH DAKOTA

CITY           SKY/WX    TMP DP  RH WIND       PRES   REMARKS
SIOUX FALLS    PTSUNNY   64  50  60 S17G25    29.98S
HURON          CLOUDY    66  52  60 S14       29.90R
CHAMBERLAIN    LGT RAIN  54  50  87 W8        29.97R
MITCHELL         N/A     68  54  60 SW16      29.93R
YANKTON        MOSUNNY   64  50  59 S13       29.98R
$$

ABBREVIATIONS USED IN REMARKS
   TC - TEMPERATURE IN CELSIUS
  WCI - WIND CHILL INDEX
   HX - HEAT INDEX
  VSB - VISIBILITY




USA.gov is the U.S. government's official web portal to all federal, state and local government web resources and services.